Starlink 5125

operational
NORAD ID: 53994 Int'l Des: 2022-125 Owner: SPXS Country: US Constellation: starlink
LEOCIRCULAR

About Starlink 5125

Description loading...

Live Position

Loading 3D Globe...

Upcoming Passes

Altitude History

Altitude vs Time

uPlot chart will show altitude changes over time

Two-Line Element Set

1 53994U 22125AG 26101.87198834 .00001519 00000-0 11354-3 0 9993
2 53994 53.2184 65.0352 0001579 93.9726 266.1446 15.08826976194470
Epoch: Apr 11, 2026 • Age: 9 hours

Current Status

Altitude 552.1 km
Velocity 7.59 km/s
Sub-Earth Point -35.76°S, 96.54°E
Launch Date Oct 5, 2022
Age 3.5 years
Type internet

Technical Details

Classification Payload
Mass 305.00 kg
Dry Mass 290.00 kg
Total Mass 305.00 kg
Length 0.20 m
Diameter 2.80 m
Span 9.00 m
Shape Box + pan
Manufacturer SPXS
Bus Type Starlink
Phase Status In Orbit
Owner/State SPXS/US

Large Constellations

Loading constellations...